AirNav   Pilot Hours Calculator
 
 954 users online  

KSLI Los Alamitos Army Airfield
Los Alamitos, California, USA

GOING TO LOS ALAMITOS?


FAA INFORMATION EFFECTIVE 08 OCTOBER 2020

Location

FAA Identifier: SLI
Lat/Long: 33-47-24.1080N 118-03-05.1120W
33-47.401800N 118-03.085200W
33.7900300,-118.0514200
(estimated)
Elevation: 35.5 ft. / 10.8 m (surveyed)
Variation: 12E (2020)
From city: 1 mile SE of LOS ALAMITOS, CA
Time zone: UTC -7 (UTC -8 during Standard Time)
Zip code: 90720

Airport Operations

Airport use: Private use. Permission required prior to landing
Activation date: 04/1944
Control tower: yes
ARTCC: LOS ANGELES CENTER
FSS: HAWTHORNE FLIGHT SERVICE STATION
NOTAMs facility: SLI (NOTAM-D service available)
Attendance: FRI 1400-0100Z++, ALL SAT-SUN 1400-0000Z++, ALL MON-THU 1400-0600Z++
CLSD ALL FED HOL. EXP CLOSURE OR REDUCED SVC PER NOTAM. RSTD: PPR CTC AFLD OPS, RCMD UNITS ASK FOR CURRENT CPBLTY WHEN REQG PPR DSN 972-2571, C562-795-2571; NG.CA.CAARNG.MBX.KSLIOPERATIONS@MAIL.MIL FOR PPR REQ FORM.
Segmented circle: no
Lights: SS-SR
Beacon: white-white-green (lighted military airport)
Operates sunset to sunrise.

Airport Communications

ATIS: 118.875 379.975
LOS ALAMITOS GROUND: 126.95 257.95 [1500-0600Z++ TUE-THU, 1500-0000Z++ FRI & MON; CLSDALL FEDERAL HOL.]
LOS ALAMITOS TOWER: 123.85 251.15 [1500-0600Z++ TUE-THU, 1500-0000Z++ FRI & MON; CLSDALL FEDERAL HOL.]
SOCAL APPROACH: 125.35
SOCAL DEPARTURE: 125.35
AR OPS: 139.05 230.9
EMERG: 243.0
HAWWC DP: 125.35
OPS: 126.2 ;AFLD OPS ADVSY SVC 233.8 ;ARNG AASF 237.2 ;AFLD OPS ADVSY SVC 41.5 ;ARNG AASF
RADAR: 124.75 127.95 230.8 231.0 234.1
WX ASOS at LGB (5 nm W): PHONE 562-424-0572
WX ASOS at FUL (6 nm NE): PHONE 714-870-1372
WX AWOS-3PT at CPM (11 nm NW): 127.150 (310-631-4958)
WX ASOS at SNA (11 nm SE): PHONE 714-424-0590
WX ASOS at HHR (16 nm NW): PHONE 310-973-8930
WX AWOS-3PT at EMT (18 nm N): 118.75 ((626) 444-1107)
WX ASOS at LAX (20 nm NW): PHONE 310-568-1486

Nearby radio navigation aids

VOR radial/distance  VOR name  Freq  Var
SLI at fieldSEAL BEACH VORTAC115.7015E
ELBr279/17.4EL TORO VOR/DME117.2014E
LAXr099/20.8LOS ANGELES VORTAC113.6015E
POMr202/21.7POMONA VORTAC110.4015E
SMOr108/24.1SANTA MONICA VOR/DME110.8015E
PDZr238/27.1PARADISE VORTAC112.2015E
SXCr021/31.0SANTA CATALINA VORTAC111.4015E
RALr238/(31.6)RIVERSIDE VOR112.4014E
VNYr125/34.0VAN NUYS VOR/DME113.1015E

Airport Services

Fuel available: A1+ JET-B+ J8
Oil available: AFLD OPS ADVSY 126.2/237.2 WHEN LOS ALAMITOS TWR CLSD.

Runway Information

Runway 4R/22L

Dimensions: 7999 x 200 ft. / 2438 x 61 m
Surface: asphalt/concrete
Weight bearing capacity: 
PCN 36 /R/C/W/T
Runway edge lights: high intensity
HIRL ELEV 1' AND LCTD 5' FR EDGE OF RWY.
RUNWAY 4R  RUNWAY 22L
Latitude: 33-47.026767N33-47.783300N
Longitude: 118-03.613500W118-02.319133W
Elevation: 21.2 ft.35.5 ft.
Traffic pattern: leftleft
Visual slope indicator: 4-light PAPI on left (3.00 degrees glide path)
Approach lights: SALSF
Runway end identifier lights: noyes
Centerline lights: yesyes
Touchdown point: yes, no lightsyes, no lights

Runway 4L/22R

Dimensions: 5901 x 150 ft. / 1799 x 46 m
Surface: PEM
Weight bearing capacity: 
PCN 36 /F/C/W/T
Runway edge lights: medium intensity
RUNWAY 4L  RUNWAY 22R
Latitude: 33-47.118333N33-47.676383N
Longitude: 118-03.723767W118-02.768750W
Elevation: 20.0 ft.26.9 ft.
Traffic pattern: leftleft
Touchdown point: yes, no lightsyes, no lights

Airport Ownership and Management from official FAA records

Ownership: U.S. Army
Owner: US ARMY
AASF, CAARNG, 4612 DOOLITTLE AVE
LOS ALAMITOS, CA 90720
Phone 562-795-2571
Manager: BASE OPS
LOS ALAMITOS, CA 90720
Phone 562-795-1351
AIRFIELD OPERATIONS: C562-795-2571/2561

Additional Remarks

RWY-LGTS: RWY 22L - SF.
MISC - WINDS ARE ACCURATE TO WITHIN PLUS OR MINUS 4 KNOTS.
MISC: TO EXCEED WT BRG CAP CTC AFLD OPS. SEE FLIP AP/1 RTE AND AREA RSTD AND SUPPLEMENT ARPT RMK.
ARNG AASF OPS- OPR 1530-2330Z++ MON-FRI; EXC HOL. DSN 972-2006, C562-795-2006. HTTP://WWW.CALGUARD.CA.GOV/AASF1.
RSTD: FOR SPECIAL AFTER HRS LNDG AND AFLD LIGHTING REQUESTS FOR ACFT WEIGHING UNDER 14,500 LBS, CALL AFLD OPS AT 562-795-2571.
SERVICE: MILITARY - 1 (TMD150CIII) AIRSTAIRS TRAN ALERT - OPR 1600-2330Z++ SAT-SUN, 1430-0030Z++ MON, 1430-0530Z++ TUE-THU, 1430-0030Z++ FRI, CLSD ALL FEDERAL HOL. EXP CLOSURE OR RDCD SVC PER NOTAM. NO PRIORITY BASIS. EXP SVC DELAYS IF HEAVY ACFT ARE UTILIZING LAAAF. NO ACFT LAV SVC OR BELT LOAD CTC AIRSERV AT KLGB 866-247-7378 OR 562-429-8062. LTD TRAN SVC. NO SHUTTLE SVC AVBL.
CLASSIFIED STOR FOR TSNT AIRCREW UNAVBL AT AFLD MGMT OPS; CTC BASE SECFOR DSN 972-2100, C562-795-2100.
AIRCREWS UTILIZING LAAAF MUST ADVS THEIR DEP TO LOCAL FSS TO INCL KSLIYXYX AS AN ADDRESSEE ON THE ORIG DD 175 FLT PLAN AND ON ANY CHG, DELAY, DEP AND CNL MSG.
ALL TRAN AIRCREWS MUST RPT TO AFLD OPS. HIGH VIS EVENTS (VIP CODE 7 AND ABV) ARE RQRD TO NTFY AFLD OPS 30 MIN PRIOR TO ARR DUE TO POST HQ COORD.
RWY-17/35 CLSD (2500X150 ASP).
MISC: AFLD SIGNS NSTD. RWY 04R/22L THLD BARS NSTD. ALL RWY MARKINGS NSTD. TWY AND PRKG LINES NSTD AND NOT VIS IN DARKNESS OR INCLEMENT WX.
MISC: WILDLIFE HAZ EXISTS; RQRS INCRD VIGILANCE BY ALL AGENCIES AND SUPVRS AND CTN BY AIRCREWS. PILOTS SHOULD RPRT ALL LARGE BIRD AND MAMMAL SIGHTINGS TO TWR OR AFLD OPS.
FOR CD WHEN ATCT IS CLSD CTC AFLD OPS ON ADVSY OR SOCAL APP AT 800-448-3724.
JASU - 2(AGPU).
NS ABTMT - PRO IN EFF. ALL DEP RQR BRIEFINGS.

Instrument Procedures

NOTE: All procedures below are presented as PDF files. If you need a reader for these files, you should download the free Adobe Reader.

NOT FOR NAVIGATION. Please procure official charts for flight.
FAA instrument procedures published for use from 08 October 2020 at 0901Z to 05 November 2020 at 0900Z.

 
STARs - Standard Terminal Arrivals
KAYOH SEVEN **CHANGED**   download (318KB)
 
IAPs - Instrument Approach Procedures
RNAV (GPS) RWY 22L   download (87KB)
VOR OR TACAN RWY 22L   download (172KB)
Radar Approach Procedures available   download (74KB)
 
Departure Procedures
HAWWC THREE (RNAV)   download (197KB)
NOTE: Special Take-Off Minimums/Departure Procedures apply   download (215KB)

Other nearby airports with instrument procedures:

KLGB - Long Beach Airport (Daugherty Field) (5 nm W)
KFUL - Fullerton Municipal Airport (6 nm NE)
KSNA - John Wayne-Orange County Airport (11 nm SE)
KTOA - Zamperini Field Airport (14 nm W)
KHHR - Jack Northrop Field/Hawthorne Municipal Airport (16 nm NW)
KEMT - San Gabriel Valley Airport (18 nm N)
KLAX - Los Angeles International Airport (20 nm NW)
 
Loc | Ops | Rwys | IFR | FBO | Links
Com | Nav | Svcs | Stats | Notes

San Bernardino International Airport Authority
 
Area around KSLI (Los Alamitos Army Airfield)
 
Road maps at: MapQuest Bing Google
 
Aerial photo
WARNING: Photo may not be current or correct
Aerial photo of KSLI (Los Alamitos Army Airfield)
Photo courtesy of FocalFlight.com
Photo taken 01-Nov-2015
looking north.

Do you have a better or more recent aerial photo of Los Alamitos Army Airfield that you would like to share? If so, please send us your photo.

 
Sectional chart

 
Airport diagram
Diagram of KSLI (Los Alamitos Army Airfield)
Download PDF
of official airport diagram from the FAA

 
Airport distance calculator
Flying to Los Alamitos Army Airfield? Find the distance to fly.

From to KSLI

Sunrise and sunset
Times for 20-Oct-2020
 Local
(UTC-7)
 Zulu
(UTC)
Morning civil twilight06:3813:38
Sunrise07:0314:03
Sunset18:1101:11
Evening civil twilight18:3601:36

Current date and time
Zulu (UTC)  21-Oct-2020 02:24:16
Local (UTC-7)  20-Oct-2020 19:24:16
 
METAR
KSLI 
2nm SE 
210158Z 29006KT 5SM BR CLR 20/17 A2981 RMK AO2A SLP098 T01990171
KLGB 
5nm W 
210153Z 30007KT 6SM HZ CLR 20/17 A2981 RMK AO2 SLP092 T02000167
KFUL 
6nm NE 
210153Z VRB04KT 5SM HZ CLR 22/16 A2980 RMK AO2 SLP089 T02170156
KSNA 
12nm SE 
210153Z 22005KT 5SM HZ FEW010 21/16 A2981 RMK AO2 SLP094 T02060161
KTOA 
13nm W 
210047Z 26010KT 5SM HZ BKN013 19/18 A2981
KHHR 
16nm NW 
210153Z 28006KT 8SM OVC013 19/16 A2981 RMK AO2 SLP095 T01940156
KEMT 
17nm N 
202345Z 21009KT 7SM CLR 25/15 A2979
KCQT 
18nm NW 
210152Z AUTO 26004KT 6SM HZ OVC011 20/16 A2981 RMK AO2 SLP092 T02000161 $
KLAX 
19nm NW 
210153Z 27012KT 9SM OVC011 19/16 A2981 RMK AO2 SLP094 T01890156
TAF
KSLI 
2nm SE 
202104Z 2021/2203 VRB06KT 9999 SKC QNH2981INS BECMG 2110/2111 VRB06KT 8000 BR OVC010 QNH2980INS BECMG 2120/2121 VRB06KT 8000 BR BKN015 QNH2982INS BECMG 2200/2201 VRB06KT 9999 NSW SKC QNH2978INS TX26/2100Z TN17/2115Z
KLGB 
5nm W 
201837Z 2019/2118 00000KT P6SM SCT020 FM202000 19006KT P6SM SKC FM210000 30006KT P6SM SKC FM210500 VRB03KT P6SM SKC FM210700 00000KT P6SM OVC009 FM211500 VRB03KT P6SM OVC014
KSNA 
12nm SE 
201728Z 2018/2118 22007KT P6SM FEW015 FM210600 VRB03KT P6SM OVC010 FM210900 VRB03KT P6SM OVC014
KLAX 
19nm NW 
202104Z 2021/2124 24009KT 6SM HZ FEW020 FM210300 26006KT P6SM OVC009 FM210900 VRB03KT P6SM OVC012 FM211600 26005KT P6SM OVC015 FM212000 26012KT P6SM SCT017
NOTAMs
Click for the latest NOTAMs
NOTAMs are issued by the DoD/FAA and will open in a separate window not controlled by AirNav.

 

 
 

Would you like to see your business listed on this page?

 If your business provides an interesting product or service to pilots, flight crews, aircraft, or users of the Los Alamitos Army Airfield, you should consider listing it here.  To start the listing process, click on the button below
 
Add a business
 

Other Pages about Los Alamitos Army Airfield

www.aircav.com/sli.html
 
Update a link
 
Copyright © AirNav, LLC. All rights reserved. Privacy Policy  Contact